Weather Roundup
Issued by NWS Chicago, IL

Home | Current Version | Previous Version | Text Only | Print | Product List | Glossary On
Versions: 1 2 3 4 5 6 7 8 9 10 11 12 13 14 15 16 17 18 19 20 21 22 23 24 25 26 27 28 29 30 31 32 33 34 35 36 37 38 39 40 41 42 43 44 45 46 47 48 49 50
000
NZUS59 KLOT 181209
HRRLOT

CHICAGO AREA WEATHER ROUNDUP
NATIONAL WEATHER SERVICE CHICAGO/ROMEOVILLE IL
700 AM CDT WED OCT 18 2017

NOTE: "FAIR" INDICATES FEW OR NO CLOUDS BELOW 12,000 FEET WITH NO
SIGNIFICANT WEATHER AND/OR OBSTRUCTIONS TO VISIBILITY.

* THESE STATIONS ARE NOT UNDER NWS QUALITY CONTROL. THEY ALSO MAY NOT
  REPORT WEATHER SUCH AS PRECIPITATION OR FOG.

ILZ005-006-012>014-019>023-181300-
NORTHEAST ILLINOIS

CITY           SKY/WX    TMP DP  RH WIND       PRES   REMARKS
OHARE          CLEAR     49  41  74 S7        30.15S
6HR MIN TEMP:  47; 6HR MAX TEMP:  56;

MIDWAY         CLEAR     50  41  71 S8        30.17S
6HR MIN TEMP:  50; 6HR MAX TEMP:  54;

AURORA         CLEAR     43  40  89 SE6       30.16S
6HR MIN TEMP:  42; 6HR MAX TEMP:  48;

LANSING*       CLEAR     46  42  85 SW8       30.19F
JOLIET*        CLEAR     45  42  90 SE3       30.17F
WAUKEGAN       CLEAR     49  41  74 SW10      30.13S
6HR MIN TEMP:  47; 6HR MAX TEMP:  54;

DUPAGE AIRPORT CLEAR     45  42  89 S8        30.15S
6HR MIN TEMP:  43; 6HR MAX TEMP:  51;

WHEELING       CLEAR     48  42  80 S7        30.16S
6HR MIN TEMP:  48; 6HR MAX TEMP:  57;

KANKAKEE*      CLEAR     45  39  81 SW5       30.21S
MORRIS*        CLEAR     43  40  89 S6        30.16F
LEWIS AIRPORT* CLEAR     43  40  90 S8        30.17S
$$

WIZ051-052-058>065-066-070>072-181300-
SOUTHEAST WISCONSIN

CITY           SKY/WX    TMP DP  RH WIND       PRES   REMARKS
MILWAUKEE      CLEAR     50  41  71 SW8       30.11S
6HR MIN TEMP:  50; 6HR MAX TEMP:  57;

KENOSHA*       CLEAR     49  40  71 SW8       30.13S
RACINE*        CLEAR     50  41  71 SW12      30.13S
BURLINGTON     CLEAR     45  41  86 SW5       30.12S
WAUKESHA       CLEAR     48  39  71 SW6       30.10S
WEST BEND      CLEAR     50  39  66 S7        30.07S
$$

INZ001>003-010>013-019-020-181300-
NORTHWEST INDIANA

CITY           SKY/WX    TMP DP  RH WIND       PRES   REMARKS
GARY*          CLEAR     52  39  62 S7        30.19F
MICHIGAN CITY* NOT AVBL
RENSSELAER*    NOT AVBL
VALPARAISO     CLEAR     45  40  82 S5        30.21F
$$

LMZ740>746-181300-
SOUTHERN LAKE MICHIGAN

STATION/POSITION TIME  SKY/WX   TEMP WIND        PRES    VSBY
                                AIR  DIR/SP/G
                 (UTC)          (F)  (DEG/KT/KT) (MB)    (MI)
HARRISON CRIB    1140            54  210/ 19/ 21   N/A
BURNHAM HARBOR   1200            52  190/  5/ 11   N/A
CALUMET HARBOR   1148            50  170/  6/  8 1021.2S
BURNS HARBOR     1140            50  180/ 13/ 15 1022.7F
MICHIGAN CITY    1140            51  170/ 15/ 17   N/A
$$

ABBREVIATIONS USED IN REMARKS
   TC - TEMPERATURE IN CELSIUS
  WCI - WIND CHILL INDEX
   HX - HEAT INDEX
  VSB - VISIBILITY
$$



USA.gov is the U.S. government's official web portal to all federal, state and local government web resources and services.